Weather History for KSEG - August, 2013

Change the Weather History Date:

Monday, August 26, 2013

  Actual Average (KIPT) Record (KIPT)
Temperature  
Mean Temperature 74 °F 70 °F  
Max Temperature 88 °F 80 °F 98 °F (1948)
Min Temperature 61 °F 60 °F 42 °F (1944)
Degree Days  
Heating Degree Days 0 1  
Month to date heating degree days 2  
Since 1 June heating degree days 43  
Since 1 July heating degree days 6  
Cooling Degree Days 9 5  
Month to date cooling degree days 177  
Year to date cooling degree days 610  
Since 1 June cooling degree days 567  
Growing Degree Days 24 (Base 50)    
Moisture  
Dew Point 64 °F    
Average Humidity 75    
Maximum Humidity 96    
Minimum Humidity 48    
Precipitation  
Precipitation 0.03 in 0.12 in 1.48 in (1906)
Month to date precipitation 3.25  
Year to date precipitation 26.42  
Sea Level Pressure  
Sea Level Pressure 30.09 in    
Wind  
Wind Speed 2 mph (SW)    
Max Wind Speed 8 mph    
Max Gust Speed -    
Visibility 8 miles    
Events Rain    
T = Trace of Precipitation, MM = Missing Value Source: NWS Daily Summary

Daily Weather History Graph

Daily Weather History Graph

Search for Another Location

Airport or City:

Trip Planner

Search our weather history database for the weather conditions in past years. The results will help you decide how hot, cold, wet, or windy it might be!

Date:

Astronomy

Aug. 26, 2013 Rise Set
Actual Time 6:28 AM EDT 7:48 PM EDT
Civil Twilight 6:00 AM EDT 8:17 PM EDT
Nautical Twilight 5:25 AM EDT 8:51 PM EDT
Astronomical Twilight 4:49 AM EDT 9:27 PM EDT
Moon 10:55 PM EDT 12:30 PM EDT
Length of Visible Light 14h 17m
Length of Day
13h 20m
Waning Gibbous, 67% of the Moon is Illuminated
Aug 26
Waning Gibbous
Aug 28
Last Quarter
Sep 5
New
Sep 12
First Quarter
Sep 19
Full

Hourly Weather History & Observations

Time (EDT) Temp. Heat Index Dew Point Humidity Pressure Visibility Wind Dir Wind Speed Gust Speed Precip Events Conditions
12:53 AM 66.0 °F - 60.1 °F 81% 30.23 in 10.0 mi Calm Calm - N/A   Clear
1:53 AM 66.0 °F - 60.1 °F 81% 30.23 in 10.0 mi Calm Calm - N/A   Clear
2:53 AM 64.0 °F - 61.0 °F 90% 30.19 in 10.0 mi Calm Calm - N/A   Clear
3:53 AM 63.0 °F - 59.0 °F 87% 30.18 in 10.0 mi SSW 3.5 mph - N/A   Clear
4:53 AM 64.0 °F - 59.0 °F 84% 30.19 in 10.0 mi Calm Calm - N/A   Clear
5:53 AM 62.1 °F - 60.1 °F 93% 30.20 in 8.0 mi Calm Calm - N/A   Partly Cloudy
6:53 AM 61.0 °F - 59.0 °F 93% 30.21 in 8.0 mi Calm Calm - N/A   Partly Cloudy
7:53 AM 64.9 °F - 61.0 °F 87% 30.21 in 8.0 mi Calm Calm - N/A   Scattered Clouds
8:53 AM 70.0 °F - 61.0 °F 73% 30.20 in 10.0 mi Calm Calm - N/A   Scattered Clouds
9:53 AM 73.0 °F - 62.1 °F 68% 30.19 in 10.0 mi Variable 3.5 mph - N/A   Mostly Cloudy
10:53 AM 79.0 °F - 64.0 °F 60% 30.16 in 10.0 mi SSW 6.9 mph - N/A   Partly Cloudy
11:53 AM 81.0 °F 81.9 °F 62.1 °F 52% 30.14 in 10.0 mi Variable 5.8 mph - N/A   Clear
12:53 PM 80.1 °F 81.5 °F 63.0 °F 56% 30.12 in 10.0 mi Variable 3.5 mph - N/A   Scattered Clouds
1:53 PM 84.0 °F 85.4 °F 64.0 °F 51% 30.07 in 10.0 mi Variable 4.6 mph - N/A   Scattered Clouds
2:53 PM 84.9 °F 86.6 °F 64.9 °F 51% 30.03 in 10.0 mi SW 5.8 mph - N/A   Clear
3:53 PM 87.1 °F 88.9 °F 64.9 °F 48% 30.01 in 10.0 mi WSW 8.1 mph - N/A   Clear
4:53 PM 84.9 °F 86.6 °F 64.9 °F 51% 29.98 in 10.0 mi Variable 5.8 mph - N/A   Clear
5:53 PM 84.9 °F 86.6 °F 64.9 °F 51% 29.97 in 10.0 mi SW 3.5 mph - N/A   Clear
6:53 PM 81.0 °F 83.3 °F 66.9 °F 62% 29.96 in 10.0 mi SW 3.5 mph - N/A   Clear
7:53 PM 75.0 °F - 70.0 °F 84% 29.98 in 6.0 mi Calm Calm - N/A   Haze
8:53 PM 73.9 °F - 66.9 °F 79% 29.98 in 8.0 mi Calm Calm - N/A   Partly Cloudy
9:53 PM 73.0 °F - 69.1 °F 87% 29.98 in 7.0 mi Calm Calm - 0.00 in   Overcast
10:53 PM 71.1 °F - 70.0 °F 96% 29.98 in 3.0 mi Calm Calm - 0.03 in Rain Light Rain
11:31 PM 71.6 °F - 69.8 °F 94% 29.97 in 2.5 mi Calm Calm - 0.00 in   Partly Cloudy
11:45 PM 71.6 °F - 69.8 °F 94% 29.97 in 3.0 mi Calm Calm - 0.00 in   Scattered Clouds
11:53 PM 71.1 °F - 69.1 °F 93% 29.96 in 3.0 mi Calm Calm - 0.00 in   Mostly Cloudy